Regional Weather Roundup
Issued by NWS Upton, NY

Current Version | Previous Version | Graphics & Text | Print | Product List | Glossary Off
Versions: 1 2 3 4 5 6 7 8 9 10 11 12 13 14 15 16 17 18 19 20 21 22 23 24 25 26 27 28 29 30 31 32 33 34 35 36 37 38 39 40 41 42 43 44 45 46 47 48 49 50

000
ASUS41 KOKX 091304
RWROKX

REGIONAL WEATHER ROUNDUP
NATIONAL WEATHER SERVICE NEW YORK NY
800 AM EST TUE FEB 09 2016

NOTE: "FAIR" INDICATES FEW OR NO CLOUDS BELOW 12,000 FEET WITH NO
SIGNIFICANT WEATHER AND/OR OBSTRUCTIONS TO VISIBILITY.

NYZ071-072-176-178-NJZ106-104-091400-
NEW YORK CITY METRO AREA


CITY           SKY/WX    TMP DP  RH WIND       PRES   REMARKS
CENTRAL PARK   CLOUDY    28  22  78 VRB3      29.70F
LAGUARDIA APRT CLOUDY    29  23  78 NE10      29.69F WCI  20
KENNEDY INTL   CLOUDY    28  22  78 NE12      29.70F WCI  18
NEWARK/LIBERTY CLOUDY    30  24  78 E7        29.69S WCI  23
BRNX BOT. GARD   N/A     28  23  80 NE6       29.70S WCI  22
TETERBORO      CLOUDY    27  20  75 NE8       29.69S WCI  19
$$

NYZ177-179-078>081-091400-
LONG ISLAND NEW YORK

CITY           SKY/WX    TMP DP  RH WIND       PRES   REMARKS
FARMINGDALE    CLOUDY    27  22  81 NE7       29.70F WCI  19
ISLIP          CLOUDY    26  21  81 NE9       29.68F WCI  17
SHIRLEY        CLOUDY    25  21  85 N5        29.69F WCI  19
RIVERHEAD        N/A     27  19  74 E2        29.68F
WESTHAMPTON    CLOUDY    25  21  85 NE9       29.70F WCI  15
EAST HAMPTON   CLOUDY    25  22  88 CALM      29.70F
MONTAUK POINT    N/A     27  24  89 NE6       29.71F WCI  20
$$

NYZ052-065-067-091400-
HUDSON VALLEY

CITY           SKY/WX    TMP DP  RH WIND       PRES   REMARKS
WHITE PLAINS   CLOUDY    23  17  78 NE7       29.67F WCI  15
NEWBURGH       NOT AVBL
MONTGOMERY     CLOUDY    24  19  81 E3        29.68R
POUGHKEEPSIE   CLOUDY    21  17  84 CALM      29.71R
ALBANY         FLURRIES  24  20  84 CALM      29.67S
$$

NJZ001-105-106-008-010-013-015-019>022-104-091400-
NEW JERSEY

CITY           SKY/WX    TMP DP  RH WIND       PRES   REMARKS
NEWARK/LIBERTY CLOUDY    30  24  78 E7        29.69S WCI  23
TETERBORO      CLOUDY    27  20  75 NE8       29.69S WCI  19
CALDWELL       CLOUDY    27  21  78 E8        29.70R WCI  19
MORRISTOWN     CLOUDY    27  23  86 NE6       29.69R WCI  20
SOMERVILLE     CLOUDY    28  23  81 NE8       29.66S WCI  20
SUSSEX         CLOUDY    24  20  84 NE5       29.67R WCI  18
ANDOVER          N/A     25  20  81 CALM      29.66R
TRENTON        CLOUDY    29  25  85 NE9       29.65S WCI  20
MILLVILLE      LGT SNOW  34  32  92 NE9       29.60F FOG     WCI  27
ATLANTIC CITY  CLOUDY    35  29  78 N5        29.61S WCI  31
WRIGHTSTOWN    CLOUDY    31  31 100 NE8       29.61F WCI  24
TOMS RIVER     CLOUDY    34  28  80 NE12      29.63F WCI  25
BELMAR         CLOUDY    30  23  74 NE12      29.63F WCI  21
$$

PAZ047>061-062-071-091400-
EASTERN PENNSYLVANIA

CITY           SKY/WX    TMP DP  RH WIND       PRES   REMARKS
PHILADELPHIA   LGT SNOW  33  28  81 NE8       29.64S WCI  26
ALLENTOWN      LGT SNOW  29  24  82 E9        29.65R WCI  20
SCRANTON       CLOUDY    28  21  75 VRB3      29.58S
$$

CTZ002-004>006-009-010-012-RIZ004-006-007-MAZ004-011-015-091400-
SOUTHERN NEW ENGLAND
 IN CT

CITY           SKY/WX    TMP DP  RH WIND       PRES   REMARKS
BRADLEY INTL   PTSUNNY   18  15  88 CALM      29.73R
HARTFORD       CLOUDY    21  17  84 NE3       29.74R
DANBURY        CLOUDY    20  15  81 E3        29.71S
WTRBRY/OXFORD  CLOUDY    19   7  58 E8        29.68R WCI   9
BRIDGEPORT     CLOUDY    24  18  77 N8        29.72F WCI  15
MERIDEN        CLOUDY    22  17  81 N7        29.72R WCI  13
NEW HAVEN      CLOUDY    21  18  88 N5        29.72S WCI  15
CHESTER        CLOUDY    21  19  93 NE3       29.70F
GROTON         CLOUDY    22  18  85 N5        29.72F WCI  16
WILLIMANTIC    CLOUDY    19  15  84 N3        29.73S

 IN RI

CITY           SKY/WX    TMP DP  RH WIND       PRES   REMARKS
PROVIDENCE     CLOUDY    21  16  81 N7        29.73R WCI  12
BLOCK ISLAND   CLOUDY    27  25  93 N7        29.68F WCI  19
WESTERLY       CLOUDY    22  17  81 N5        29.72F WCI  16

 IN MA

CITY           SKY/WX    TMP DP  RH WIND       PRES   REMARKS
BOSTON         CLOUDY    21  16  81 W7        29.75R WCI  12
WORCESTER      CLOUDY    16  12  84 E5        29.68R WCI   9
WESTFIELD      CLOUDY    14  11  87 CALM      29.73R
PROVINCETOWN   CLOUDY    31  25  78 CALM      29.71R
NANTUCKET      CLOUDY    33  28  81 CALM      29.68R
$$

ANZ330-335-338-340-345-350-353-355-091400-
COASTAL MARINE OBSERVATIONS


STATION/POSITION TIME  SKY/WX   TEMP    WIND        PRES    VSBY  WAVE
                                AIR SEA DIR/SP/G                  HT/PER
                 (UTC)          (F)     (DEG/KT/KT) (MB)    (MI)  (FT/S)
NY HARB ENTRANCE 1150            31 43   50/ 14/ 17 1004.1          7/14
4S FIRE IS       NOT AVBL
20S FIRE ISLAND  1150            34 45   70/ 14/ 16 1004.1          7/11
GREAT SOUTH BAY  NOT AVBL
23SW MTP         1250            32 46   50/ 14/ 17 1003.8          8/14
HUDSON CANYON    1150            38 49              1002.7         10/14
KINGS POINT      1200            27 39  120/  4/  6 1005.4
EXECUTION ROCKS  NOT AVBL
CENTRAL LI SOUND 1215            26      90/ 10/ 14   N/A           2/ 3
EASTERN LI SOUND 1200            25 42   70/ 10/ 14   N/A
ROBBINS REEF     1200            29      90/ 11/ 15 1004.5
$$


>>>>>>>>>>>>>>>>>>>>>>>>>>>> KEY <<<<<<<<<<<<<<<<<<<<<<<<<<<
>                                                          <
>     SKY/WX - SKY CONDITION/PRESENT WEATHER               <
>     TMP    - TEMPERATURE IN FAHRENHEIT                   <
>     DP     - DEWPOINT IN FAHRENHEIT                      <
>     RH     - RELATIVE HUMIDITY IN PERCENT                <
>     WIND   - DIRECTION AND SPEED IN MPH                  <
>     PRES   - MEAN SEA LEVEL PRESSURE IN INCHES OF HG     <
>     WCI    - WIND CHILL INDEX                            <
>     VSB    - VISIBILITY IN MILES                         <
>     HX     - HEAT INDEX                                  <
>     TC     - TEMPERATURE IN CELSIUS                      <
>     VRB    - VARIABLE WIND DIRECTION                     <
>                                                          <
>>>>>>>>>>>>>>>>>>>>>>>>>>>> KEY <<<<<<<<<<<<<<<<<<<<<<<<<<<





USA.gov is the U.S. government's official web portal to all federal, state and local government web resources and services.